Regional Weather Roundup
Issued by NWS Mobile, AL

Home | Current Version | Previous Version | Text Only | Print | Product List | Glossary On
Versions: 1 2 3 4 5 6 7 8 9 10 11 12 13 14 15 16 17 18 19 20 21 22 23 24 25 26 27 28 29 30 31 32 33 34 35 36 37 38 39 40 41 42 43 44 45 46 47 48 49 50
000
ASUS44 KMOB 290716
RWRMOB
REGIONAL WEATHER ROUNDUP
NATIONAL WEATHER SERVICE MOBILE AL
200 AM CDT WED JUL 29 2015

ALZ061>064-290800-
COASTAL ALABAMA


CITY           SKY/WX    TMP DP  RH WIND       PRES   REMARKS
MOBILE REG APT CLEAR     78  73  84 W5        29.98F
BROOKLEY FIELD PTCLDY    82  72  71 VRB5      29.98F
GULF SHORES    PTSUNNY   81  76  86 CALM      29.97F

$$

ALZ051>060-290800-
INTERIOR SOUTHWEST AND SOUTH CENTRAL ALABAMA


CITY           SKY/WX    TMP DP  RH WIND       PRES   REMARKS
ANDALUSIA/OPP  CLEAR     80  74  81 CALM      29.96F
EVERGREEN      CLEAR     75  74  96 CALM      29.97F
FLORALA        SUNNY     76  73  91 CALM      29.98F
GREENVILLE     FAIR      76  73  91 CALM      29.96F

$$

FLZ001>006-290800-
WESTERN FLORIDA PANHANDLE


CITY           SKY/WX    TMP DP  RH WIND       PRES   REMARKS
CRESTVIEW      CLEAR     77  76  96 CALM      29.97F FOG
DESTIN         CLEAR     84  76  76 CALM      29.95F
DUKE FIELD     FAIR      80  75  83 NW6       29.95F
MARY ESTHER    PTCLDY    82  74  77 W1        29.94F
MILTON         SUNNY     82  75  79 VRB3      29.96F
PENSACOLA      PTCLDY    80  74  81 W6        29.96F
NAS PENSACOLA  PTCLDY    77  75  93 S5        29.96F
VALPARAISO     MOCLDY    81  75  84 W1        29.95F

$$

...MARINE OBSERVATIONS...

STATION/POSITION TIME  SKY/WX   TEMP    WIND        PRES    VSBY
                                AIR SEA DIR/SP/G
                 (UTC)          (F)     (DEG/KT/KT) (MB)    (MI)
PASCAGOULA       0600            85     310/  3/  4 1015.5S
PETIT BOIS ISL   0600            88     260/ 11/ 12 1016.0S
E DAUPHIN ISLAND 0700            87     260/  5/  9 1014.4F
MIDDLE BAY LIGHT 0600            85     290/ 12     1014.9R
USCG MOBILE BAY  0600            85 85  300/  5/  8 1014.4F
STATE DOCKS      0600            85 87              1015.2F
MEAHER PARK      0700            84     330/  2     1014.2F
12 S ORANGE BCH  0650            84 84  250/ 14/ 16 1014.1F
WVE H/P(F/S)=  1/ 3

PENSACOLA BAY    0600            82 87  300/  4/  7 1015.3F
64 S DAUPHIN ISL 0650            86 88  260/ 10/ 12 1015.7F
WVE H/P(F/S)=  1

67 S FORT MORGAN 0630            85     260/ 10     1015.6F
115 SE PENSACOLA 0650            86 87  280/ 10/ 14 1014.9F
WVE H/P(F/S)=  1/ 4

MID GULF/42001   0650            85 86  220/  4/  6 1016.2F
WVE H/P(F/S)=  1/ 4

EAST GULF/42003  0650            84 85  260/ 10/ 12 1015.1F
WVE H/P(F/S)=  1/ 9


$$

...NEARBY LOCATIONS

CITY           SKY/WX    TMP DP  RH WIND       PRES   REMARKS
GULFPORT       CLEAR     79  75  87 W3        29.97F
BILOXI         CLEAR     82  77  85 W1        29.97F
PASCAGOULA     CLEAR     77  75  93 CALM      29.98F
HATTIESBURG    CLEAR     78  76  93 CALM      29.98F
LAUREL         CLEAR     79  73  83 CALM      30.00F
MERIDIAN       CLEAR     75  73  93 S5        29.98F
MERIDIAN NAS   CLEAR     77  74  90 CALM      29.97F
MONTGOMERY     CLEAR     78  74  87 SW5       29.95F
MAXWELL AFB    CLEAR     77  76  96 W3        29.95F
TROY           CLEAR     75  73  93 CALM      29.96F FOG
FORT RUCKER    CLEAR     76  72  87 CALM      29.94F
DALEVILLE      CLEAR     77  73  88 W3        29.94F
DOTHAN         CLEAR     79  73  82 W3        29.99F

$$

...OTHER SURROUNDING LOCATIONS...

CITY           SKY/WX    TMP DP  RH WIND       PRES   REMARKS
BIRMINGHAM     CLEAR     78  75  90 CALM      29.99F
TUSCALOOSA     CLEAR     78  76  93 CALM      29.95F
COLUMBUS GA    PTCLDY    79  72  79 CALM      29.95F
PANAMA CITY    NOT AVBL
TALLAHASSEE    PTCLDY    82  77  84 W5        29.94F
BATON ROUGE    CLEAR     80  75  84 SW7       30.00F
NEW ORLEANS    CLEAR     83  74  74 SW6       30.00F
SLIDELL        CLEAR     79  76  90 CALM      29.98F
JACKSON        CLEAR     80  74  81 CALM      29.99F
MCCOMB         CLEAR     78  76  93 CALM      30.01F

$$

...SURROUNDING MARINE OBSERVATIONS...

STATION/POSITION TIME  SKY/WX   TEMP    WIND        PRES    VSBY
                                AIR SEA DIR/SP/G
                 (UTC)          (F)     (DEG/KT/KT) (MB)    (MI)
WAVELAND         0600            84 87  260/  5/  6 1016.0F
PASCAGOULA RGN A 0600            85     300/  6/  6 1015.1S
PASCAGOULA PORT  0600               84                N/A
GRAND ISLE       0600            86 91  210/  2/  3 1016.5R
SOUTHWEST PASS   0700            86     210/  7/  8 1016.0F
PILOT STATION E  0600            86 86  210/  4/  5 1016.6F
SHELL BEACH      0600            85 89  230/  6/  7 1015.6S
PANAMA CITY      0600            85 87  290/  7/  9 1014.2F
APALACHICOLA     0600            84 89  290/  4/  6 1014.4F
TYNDALL TOWER C  0700            85     280/ 15/ 16 1014.0F
S APLCHCLA/42036 0650            85 85  280/ 14/ 17 1014.1F
WVE H/P(F/S)=  2/ 4


$$



USA.gov is the U.S. government's official web portal to all federal, state and local government web resources and services.